Regional Weather Roundup
Issued by NWS

Home | Current Version | Previous Version | Graphics & Text | Print | Product List | Glossary On
Versions: 1 2 3 4 5 6 7 8 9 10 11 12 13 14 15 16 17 18 19 20 21 22 23 24 25 26 27 28 29 30 31 32 33 34 35 36 37 38 39 40 41 42 43 44 45 46 47 48 49 50
000
ASUS43 KBIS 140310
RWRND

NORTH DAKOTA REGIONAL WEATHER ROUNDUP
NATIONAL WEATHER SERVICE BISMARCK ND
900 PM CST WED DEC 13 2017

NOTE: "FAIR" INDICATES FEW OR NO CLOUDS BELOW 12,000 FEET WITH NO
SIGNIFICANT WEATHER AND/OR OBSTRUCTIONS TO VISIBILITY.


NDZ001>003-009>011-017-140400-
NORTHWEST NORTH DAKOTA

CITY           SKY/WX    TMP DP  RH WIND       PRES   REMARKS
WILLISTON      CLOUDY    33  27  78 W7        30.01F
MINOT          CLOUDY    33  26  75 W12       29.95F
MINOT AFB      CLOUDY    31  25  78 W7        29.94F
$$

NDZ018>021-031>035-040>046-140400-
SOUTHWEST NORTH DAKOTA

CITY           SKY/WX    TMP DP  RH WIND       PRES   REMARKS
BISMARCK       CLOUDY    34  25  69 NW10      30.01S
DICKINSON      MOCLDY    31  24  75 W10       29.99S
GARRISON         N/A     28  24  85 NW8       29.97F WCI  20
HETTINGER ARPT PTCLDY    31  23  72 NW12      30.03S
$$

NDZ004>008-012>016-024-026-027-054-140400-
NORTHEAST NORTH DAKOTA

CITY           SKY/WX    TMP DP  RH WIND       PRES   REMARKS
GRAND FORKS    FLURRIES  19  16  88 N8        29.99R WCI   9
GRND FRKS AFB  FLURRIES  18  13  80 N12       29.99S WCI   6
DEVILS LAKE    CLOUDY    21  18  88 N10       29.96S WCI  10
$$

NDZ022-023-025-028>030-036>039-047>053-140400-
SOUTHEAST NORTH DAKOTA

CITY           SKY/WX    TMP DP  RH WIND       PRES   REMARKS
FARGO          CLOUDY    20  15  81 N10       29.98S WCI   9
JAMESTOWN      CLOUDY    26  24  92 NE8       29.95S WCI  18
$$





USA.gov is the U.S. government's official web portal to all federal, state and local government web resources and services.